星链-1146 (STARLINK-1146 )

导读

STARLINK-1146是美国太空探索技术公司(SpaceX)于2020年1月29日发射的星链(Starlink)卫星,属于星链互联网星座组网卫星,运行在近地轨道,旨在为全球提供高速低延迟卫星互联网服务,是星链早期部署阶段的组网卫星之一,助力星链星座的服务覆盖能力构建。

基本信息
目录编号:
45094
目录名称:
STARLINK-1146
国际标识:
2020-006BC
轨道中心:
EARTH
卫星名称:
星链-1146
卫星全名:
星链-1146 (STARLINK-1146 )
卫星状态:
已陨落 最后检测时间 2025-10-04
发射日期:
2020-01-29 UTC
国别 :
美国 (US)
星等 :
--
该卫星已列入 空间交会检测服务 Space Conjunction Data Service (SCDS) ,当前飞行风险评估等级: 无高风险
轨道信息
数据来源 国际轨道数据
星历时间: 2025-10-04T11:12:14+0800
轨道信息已过期344天
半长轴: 6542.665km
偏心率: 0.0005828
轨道倾角: 53.030°
近地点辐角 238.945°
升交点赤经 167.556°
平近点角 121.103°
近地点: 160.716km
远地点: 168.344km
周期: 87.779分钟
每日圈数: 16.404794
详细信息
固有亮度:
5
最大亮度:
2.5
卫星平台:
Starlink V1.0
覆盖范围:
全球
运营商:
太空探索技术公司
运营商所在国:
美国
制造商(研发单位):
太空探索技术公司
制造商所在国:
美国
使用方式:
暂无
卫星简介
星链(Starlink)计划是由太空探索技术公司(SpaceX)提出的一个巨型低轨卫星互联网星座项目,计划在2019年至2024年间在太空搭建由约1.2万颗卫星组成的“星链”网络,其中1584颗将部署在地球上空550千米处的近地轨道,并从2020年开始工作。该卫星仍在工作。
与全量物体交会距离演化趋势
与全量物体交会风险概率演化趋势